RH
65 61 64 64 66 64 59 69 68 70 75 72 73 78 80 81 91 94 86 88 74 75 74 73 70 70 72 72 75 75 73 74 75
61 65 64 67 66 65 67 67 71 76 77 75 74 74 78 82 91 90 95 83 72 73 71 72 71 69 69 69 66 68 70 70 70
64 66 67 66 64 65 67 70 72 74 76 75 74 75 75 74 85 93 94 78 71 69 70 71 71 71 71 70 66 64 64 66 65
66 66 66 65 63 64 66 72 76 76 76 75 75 79 80 80 77 75 93 76 67 67 68 72 71 67 63 60 61 61 59 62 59
72 74 71 66 65 64 67 74 72 78 78 77 79 80 79 83 77 72 83 72 65 62 67 68 65 59 59 60 62 61 60 60 62
83 80 68 72 68 65 69 72 74 83 83 80 80 79 88 89 81 61 76 67 62 62 66 60 58 60 61 62 61 62 63 63 62
87 86 76 77 76 72 73 67 83 86 92 86 82 88 90 90 86 59 69 65 60 64 57 61 61 62 62 62 63 63 63 63 63
96 97 96 94 88 94 86 80 82 87 86 90 91 90 92 95 92 66 64 60 61 63 59 61 61 62 62 62 62 63 63 63 63
96 97 94 92 92 90 85 76 81 85 88 87 88 91 95 97 96 76 71 64 58 64 61 58 60 61 62 62 62 62 62 62 62
93 90 88 85 81 78 76 79 79 84 81 80 83 92 94 94 95 96 80 72 64 59 58 60 61 58 61 62 62 62 62 62 62
79 80 78 76 77 80 74 79 79 83 77 76 82 92 93 92 93 94 90 78 69 60 60 62 62 59 59 62 61 61 61 61 61
76 76 73 72 79 78 80 82 82 82 73 76 79 87 92 92 90 88 79 81 73 66 59 59 60 60 60 60 60 62 63 62 61
72 71 68 73 82 81 84 87 87 84 79 81 77 82 87 89 88 85 80 78 74 75 66 62 58 59 59 61 60 55 54 53 53
67 67 67 76 84 84 81 91 84 88 87 78 81 78 81 80 70 80 76 77 79 81 67 67 62 59 59 56 54 51 50 50 51
67 66 67 74 83 86 86 89 93 90 86 66 77 82 79 79 80 76 68 72 78 77 73 77 77 58 58 52 49 48 47 47 50
66 69 67 72 77 80 80 88 89 91 93 92 95 95 87 77 72 78 79 72 71 76 72 73 78 68 57 50 47 45 44 46 49
64 64 66 67 69 70 76 79 83 83 92 90 94 95 95 91 76 76 72 73 73 69 64 67 69 69 77 65 49 45 43 45 48
65 66 70 67 66 68 70 75 72 84 84 82 83 97 94 96 91 78 74 69 73 72 67 63 63 68 79 64 57 44 43 45 48
66 66 66 67 71 69 65 69 75 78 80 75 63 75 87 94 93 90 80 73 67 72 73 64 60 64 66 57 52 45 44 46 49
65 68 68 71 73 70 69 74 73 77 76 75 72 70 70 76 87 96 95 87 80 74 61 54 51 59 59 56 56 44 43 45 48
Wind_Speed
15 16 15 16 16 15 17 17 15 14 16 17 16 16 16 12 7 6 6 5 16 17 20 19 19 18 18 19 19 19 19 20 20
17 16 17 16 16 16 17 15 12 16 17 18 16 16 16 8 7 6 5 8 20 18 20 19 18 18 18 16 15 16 17 18 18
16 16 16 16 16 17 17 15 15 16 18 17 15 16 15 9 7 6 4 14 18 17 18 17 17 17 16 14 13 13 14 16 16
15 15 15 16 16 16 16 15 14 15 17 18 17 18 15 8 5 5 4 14 18 16 16 17 16 14 13 13 14 14 14 14 14
12 11 13 15 15 15 15 14 14 17 19 18 18 16 14 6 5 4 5 15 18 16 15 15 13 13 14 15 15 15 15 15 16
7 6 14 13 14 14 15 14 14 18 17 17 15 13 4 5 4 3 11 15 18 14 14 14 14 14 15 15 16 16 16 16 16
5 6 11 12 10 11 14 12 15 11 5 6 10 4 5 4 3 3 9 13 13 15 14 15 15 15 15 15 16 16 16 16 15
3 3 3 4 7 3 6 5 4 7 5 4 4 5 5 3 3 5 11 13 15 15 16 15 14 15 15 15 15 15 15 15 15
4 3 2 3 3 5 4 3 5 6 6 7 6 6 4 3 3 4 8 12 14 14 14 14 14 14 14 14 14 14 14 14 14
4 3 3 2 3 4 5 4 5 6 6 5 6 6 6 6 3 3 10 11 13 12 13 13 13 13 13 13 13 13 13 13 13
4 4 4 3 3 3 4 5 5 5 5 5 5 6 5 5 6 4 5 12 10 11 12 13 13 11 13 12 13 13 13 13 13
6 5 4 3 3 4 4 4 5 5 4 5 4 5 5 5 6 5 4 5 8 8 10 11 12 12 12 12 13 14 15 15 15
6 5 4 5 4 4 4 4 4 5 5 4 3 4 4 5 5 4 4 4 4 6 11 11 11 11 11 12 13 13 13 13 13
5 5 4 5 5 4 6 3 5 4 3 4 4 3 4 4 3 5 5 4 4 3 9 10 9 10 11 11 11 12 12 12 12
5 4 5 5 5 5 3 5 3 4 5 5 4 2 2 2 3 5 3 4 4 4 4 4 3 7 8 9 10 11 12 12 13
7 5 5 5 6 6 7 4 6 3 3 5 3 3 1 2 2 3 4 4 4 4 4 3 2 2 7 7 8 9 11 11 12
7 7 6 7 5 5 6 6 4 3 5 4 3 3 0 1 4 2 3 5 3 4 3 4 4 3 3 4 7 9 10 11 12
7 7 7 6 6 8 7 7 7 5 3 4 5 3 4 2 0 4 4 5 3 3 3 4 4 4 3 4 5 6 8 11 13
7 8 8 9 5 7 8 6 4 6 7 1 1 2 5 4 1 1 2 3 3 3 1 2 3 4 3 2 1 5 8 11 14
6 7 7 6 5 6 7 7 6 4 6 4 3 1 2 3 4 3 2 1 1 1 1 1 3 3 3 2 3 6 9 12 14
Wind_Direction
132 125 121 122 117 120 124 109 106 109 110 108 110 102 86 66 53 49 70 74 99 91 82 80 79 70 62 59 62 65 70 72 69
125 131 128 123 122 123 120 113 113 121 114 111 105 95 77 70 54 53 57 92 89 84 81 77 76 72 63 58 54 60 63 64 62
135 133 131 129 128 129 124 114 112 119 117 112 99 87 81 66 54 48 53 95 87 80 75 71 68 68 67 65 67 65 57 49 49
140 138 137 133 130 129 125 116 118 113 106 98 94 81 77 71 54 48 44 92 86 76 72 70 69 73 74 73 70 69 70 70 67
138 139 140 134 131 130 128 115 104 111 105 98 90 87 78 63 60 68 69 90 84 81 81 82 83 82 81 78 74 71 69 67 65
97 127 142 134 133 133 129 112 109 102 106 103 94 85 73 74 54 42 75 81 83 91 88 88 84 81 78 74 72 69 68 66 62
107 104 128 132 131 132 122 110 113 98 88 93 90 86 86 73 66 113 108 98 106 96 94 88 84 80 76 74 72 69 65 62 58
91 81 75 76 82 55 83 84 94 106 107 84 91 94 85 82 62 117 117 120 102 104 97 92 90 84 80 75 72 70 67 65 60
120 116 113 114 108 110 101 86 106 92 97 113 98 89 85 71 54 97 96 110 110 110 100 101 94 89 81 75 70 65 62 60 55
133 136 136 136 123 125 115 122 112 105 99 92 111 107 99 86 65 42 63 100 116 115 113 102 98 92 84 73 65 59 53 48 43
150 149 157 155 156 144 133 139 131 123 120 113 118 116 99 89 79 65 52 64 82 109 111 105 101 89 80 74 65 57 51 46 40
156 158 168 181 155 131 102 97 98 109 108 119 123 121 122 110 100 89 76 56 59 99 103 96 86 83 77 73 65 55 46 39 32
157 158 170 164 148 138 127 125 103 123 136 130 129 120 113 116 110 99 92 80 59 56 95 94 91 85 76 71 64 56 48 38 29
161 165 164 158 145 145 143 118 132 128 118 128 114 116 125 131 117 116 115 110 96 72 90 88 85 85 78 71 62 53 43 31 24
162 160 158 155 139 139 132 130 83 135 145 124 109 108 135 142 154 150 134 141 131 116 103 86 78 90 85 69 55 45 34 24 17
166 161 158 166 157 164 152 124 136 113 144 109 69 42 107 153 178 158 163 163 169 160 144 132 98 73 103 75 57 40 28 20 13
173 169 173 167 152 158 164 149 133 128 180 140 124 152 227 208 185 186 183 181 172 181 172 153 141 118 111 100 62 39 23 11 6
174 177 170 176 168 175 177 168 156 145 197 212 143 142 208 124 257 198 197 184 187 185 183 167 154 139 121 79 44 42 14 2 357
187 183 181 180 176 178 185 178 163 143 172 143 164 93 141 155 190 312 215 196 202 193 204 169 149 127 113 115 104 25 0 354 350
191 187 185 186 183 184 177 169 171 165 163 149 151 99 61 112 136 180 204 74 177 113 141 88 91 81 93 94 1 7 351 344 340